Location: El Bakhil
(32.7726°N, 5.5387°W)
Time: 04:38:46
(UTC+00:00)

COSMOS 2428 - Pass Details

Date: 03 March 2021
Orbit: 846 x 857 km, 70.9° (Epoch: 12 April)

Event Time Altitude Azimuth Distance (km) Brightness Sun altitude
Rises 20:56:07 0° 222° (SW) 3,391 6.2 -33.1°
Reaches altitude 10° 20:58:46 10° 232° (SW) 2,459 5.5 -33.7°
Maximum altitude 21:03:53 35° 297° (WNW) 1,346 4.1 -34.7°
Enters shadow 21:07:09 19° 349° (N) 1,889 4.7 -35.4°
